Wind_Speed
22 22 21 18 15 13 13 13 10 9 9 9 7 6 8 11 12 12 11 11 11 11 11 11 12 13 14 15 17 18 18 16 18 19 16 8 5 8 5 8 9 11 15
2 21 22 19 14 13 14 11 9 8 8 9 9 9 9 11 12 11 10 11 11 11 12 13 13 14 14 14 16 18 19 17 16 17 13 11 3 7 4 11 14 14 14
3 17 18 16 13 15 10 9 8 8 9 9 10 10 10 11 13 11 11 12 12 12 12 13 13 14 15 15 15 16 17 17 14 12 6 5 5 22 4 8 9 14 12
2 8 13 12 12 8 8 8 9 8 8 9 10 10 12 13 13 12 12 12 12 12 13 14 14 15 15 15 15 16 16 16 15 11 9 4 8 4 12 14 13 12 10
2 3 6 8 7 7 8 10 11 11 10 10 11 11 12 13 13 13 13 14 14 14 14 14 14 15 16 16 15 14 13 13 14 14 13 11 6 5 9 16 20 16 11
1 1 4 6 8 11 13 14 15 15 14 14 13 14 14 14 15 14 15 15 15 16 16 15 15 15 16 16 16 15 14 13 12 12 11 12 10 10 11 15 18 18 14
6 6 9 11 14 16 18 19 20 20 20 20 19 17 16 15 16 17 17 17 17 17 17 16 16 17 17 17 17 16 15 14 14 13 12 11 10 11 11 13 16 18 14
9 9 10 13 16 18 21 23 23 23 23 25 25 22 19 18 18 19 20 20 20 20 19 19 18 18 17 17 17 17 17 15 14 13 13 12 11 10 10 12 14 17 10
10 13 14 17 18 20 20 21 23 22 23 21 22 24 23 21 20 21 23 24 24 23 22 20 19 19 19 19 18 18 17 16 15 14 12 12 11 10 10 10 10 11 8
10 14 14 17 19 22 18 17 17 20 21 22 22 22 22 23 23 24 25 26 26 26 25 23 22 21 21 20 19 19 18 17 15 15 14 13 12 11 11 10 10 9 11
9 11 13 18 20 19 16 16 17 18 18 19 20 21 19 21 24 27 27 26 26 27 28 27 25 24 22 21 21 20 19 19 17 16 15 13 13 12 12 11 10 11 11
10 11 13 17 23 19 17 16 18 20 15 14 14 16 18 20 23 25 27 28 29 28 28 29 28 27 25 23 23 21 20 19 18 17 17 15 14 13 14 13 13 13 12
10 8 15 23 25 19 16 15 13 16 16 16 16 16 17 19 22 25 26 28 29 29 29 29 30 29 27 26 25 23 22 21 20 20 19 17 17 15 14 14 15 15 15
8 15 22 26 21 20 20 17 14 12 13 16 19 21 22 24 26 27 28 28 29 30 30 30 30 30 29 29 27 25 23 23 22 22 21 19 18 17 16 16 16 15 16
15 21 21 20 20 21 20 19 18 17 18 19 20 22 23 25 26 27 28 28 29 30 31 31 32 31 32 32 30 27 25 25 23 23 22 21 20 19 18 17 15 15 15
16 16 17 18 20 20 20 20 20 19 20 20 21 22 23 25 26 28 28 27 28 29 30 33 34 34 33 33 32 29 27 25 24 25 23 22 21 20 19 18 17 17 15
13 14 17 19 19 20 20 22 22 21 21 22 22 23 23 25 26 27 27 27 28 28 30 31 33 35 34 33 33 32 29 27 27 25 24 23 22 21 20 19 18 18 16
11 14 17 18 19 20 21 23 24 25 26 26 27 27 27 28 28 29 30 30 29 30 30 31 32 34 35 33 33 32 31 30 26 26 24 24 23 20 20 19 19 18 17
10 13 14 17 20 22 24 26 27 28 30 32 32 31 31 31 32 32 32 32 32 33 33 33 32 33 34 32 31 31 33 34 26 26 25 24 24 21 19 18 20 20 19
8 13 16 20 23 26 28 32 34 35 36 36 36 36 35 34 34 33 33 32 31 33 33 33 32 31 31 28 28 29 36 35 27 24 25 25 23 20 18 18 17 18 17
12 16 19 22 25 28 30 33 36 37 37 38 38 38 38 38 37 36 34 34 32 31 32 31 30 29 28 28 27 30 36 34 26 24 25 24 22 20 18 18 18 19 18
15 18 22 26 29 32 34 36 38 39 40 41 42 42 42 41 38 37 38 37 36 35 34 31 30 28 27 27 28 31 32 32 23 23 25 23 21 20 19 18 19 17 17
20 23 27 31 34 37 38 42 44 43 43 44 44 43 42 42 39 38 37 37 35 35 36 33 32 29 27 28 29 28 28 27 20 22 23 22 21 20 19 17 18 22 21
24 28 31 34 37 39 39 41 43 44 45 46 46 44 43 42 42 43 39 37 36 34 35 34 33 32 30 28 26 27 26 20 23 25 24 21 20 18 18 20 19 19 20
27 30 33 35 39 40 42 43 43 43 44 43 44 45 46 46 46 43 41 37 36 34 35 32 30 30 32 28 22 22 27 22 20 24 23 22 21 20 21 20 19 18 17
29 32 34 37 41 42 44 44 41 39 40 42 43 44 45 43 44 45 46 38 37 34 32 30 29 28 27 23 23 22 23 20 20 24 26 26 22 21 21 20 18 17 17
Wind_Direction
249 235 236 241 251 269 276 278 294 309 318 324 327 309 292 298 316 323 331 333 333 331 333 335 333 331 330 334 335 336 339 345 341 336 343 24 32 54 328 358 341 329 325
286 214 223 236 254 268 283 272 281 296 314 325 326 321 313 315 315 323 328 324 324 327 331 332 334 335 333 333 333 334 335 340 348 347 357 345 329 324 58 345 346 340 335
84 200 221 245 265 283 279 266 281 301 312 322 324 325 319 317 317 320 321 316 319 326 330 332 332 331 333 336 333 331 329 334 345 346 358 348 317 330 272 349 337 334 346
354 211 226 254 286 285 259 271 287 296 304 316 320 319 315 315 316 315 311 308 315 322 324 325 329 331 330 328 328 329 328 327 329 337 325 314 269 285 310 324 321 351 345
71 208 225 272 285 277 283 286 286 287 294 305 308 312 310 308 307 306 303 304 311 315 320 321 322 326 329 329 327 326 324 321 322 325 326 325 325 233 293 298 314 333 337
2 227 256 284 299 300 297 294 289 285 286 290 296 300 301 302 304 303 303 305 306 308 311 312 315 319 321 323 324 322 320 316 314 313 313 314 314 298 309 307 316 324 329
10 350 333 323 316 309 306 302 298 294 288 282 282 287 292 298 301 299 296 295 296 298 301 304 309 313 317 320 321 318 316 314 311 309 307 305 303 303 305 306 312 318 333
28 5 343 327 318 313 306 301 298 299 298 289 281 278 283 290 296 295 291 289 288 289 292 298 302 306 310 314 315 315 313 309 305 301 300 299 299 297 300 307 311 319 314
23 7 358 353 345 335 324 304 292 295 298 300 292 280 277 284 293 297 293 288 285 284 284 287 290 295 301 306 309 309 306 304 300 298 296 295 296 295 290 294 299 300 305
356 357 357 349 343 340 337 335 318 300 302 301 300 294 283 282 290 296 298 294 289 283 280 281 284 288 292 297 301 303 302 300 297 293 292 291 289 286 284 288 288 285 286
1 1 354 346 346 347 345 342 338 331 327 307 302 301 297 292 292 297 301 299 294 289 283 281 279 280 283 288 292 295 297 297 294 291 288 286 286 287 286 286 285 282 285
2 358 340 341 347 346 347 341 341 335 333 333 311 305 303 300 300 304 307 304 300 295 290 284 279 278 279 282 287 291 294 294 293 289 284 284 284 283 281 285 286 285 287
355 349 336 340 343 341 338 347 349 347 336 328 322 316 312 309 309 308 307 303 300 297 293 287 281 279 276 277 280 283 287 288 287 283 281 282 282 281 282 282 286 283 283
11 344 339 341 339 336 335 328 323 329 325 323 319 313 311 308 305 305 304 301 299 295 292 288 286 280 276 273 274 277 281 283 283 281 279 279 279 283 282 283 286 282 284
344 341 344 350 350 347 348 347 343 328 318 314 314 311 305 303 303 303 302 300 296 293 291 287 284 281 276 272 271 272 276 278 277 275 275 276 277 279 280 285 282 282 285
351 358 359 358 358 358 358 357 354 349 342 332 325 319 314 308 305 304 302 296 292 290 287 285 284 282 279 275 270 268 268 273 273 274 274 273 274 278 279 285 286 287 289
8 9 9 10 9 9 8 8 4 358 352 346 340 334 327 320 316 311 307 301 296 293 288 285 283 282 281 279 273 267 266 267 272 268 270 271 271 272 277 279 279 280 281
9 11 9 10 10 5 1 358 356 353 348 344 341 338 335 331 328 322 313 304 299 294 291 288 286 283 282 279 273 266 262 266 265 268 267 269 269 269 271 275 277 283 285
3 5 9 10 9 3 358 354 352 351 349 345 341 336 331 326 324 322 320 312 302 294 289 287 285 282 280 278 272 262 255 263 259 268 265 267 268 269 271 272 277 282 288
5 2 2 2 359 356 350 344 340 336 334 329 325 323 322 320 316 314 314 313 307 300 292 286 282 281 279 275 269 259 252 260 254 260 263 262 264 262 269 273 271 278 291
356 353 352 349 348 345 339 334 331 330 323 320 316 314 313 315 312 311 307 307 305 299 294 289 286 280 276 273 266 257 254 264 252 259 260 260 258 260 264 261 272 282 290
348 346 340 339 340 339 334 330 328 327 324 322 319 317 317 318 317 315 313 309 306 301 297 291 285 280 276 270 263 260 256 260 247 254 259 259 257 258 261 256 269 272 274
339 340 337 335 336 336 334 331 330 328 327 323 320 319 317 316 317 317 312 311 306 302 299 294 287 282 277 270 264 259 260 247 248 256 256 254 255 259 263 266 266 271 273
337 338 335 332 331 334 332 329 327 325 322 321 320 320 319 317 315 314 314 309 306 300 298 294 287 283 279 275 263 254 250 238 240 252 251 252 255 261 268 268 268 272 275
335 334 331 329 328 329 328 326 323 323 321 319 318 317 315 313 311 309 309 307 301 298 295 291 287 279 277 276 266 255 248 242 242 251 246 247 251 260 262 267 273 272 264
332 329 328 327 326 327 326 327 327 326 320 316 314 312 311 311 311 313 311 306 301 298 290 287 284 279 276 268 261 261 249 236 242 239 242 244 248 260 264 272 275 272 263
Height
1534 1536 1535 1536 1537 1538 1539 1539 1539 1538 1537 1536 1534 1533 1531 1530 1529 1528 1527 1525 1524 1521 1520 1518 1516 1514 1512 1510 1508 1505 1503 1501 1498 1495 1493 1492 1490 1489 1488 1486 1485 1483 1480
1530 1532 1534 1535 1536 1536 1537 1537 1536 1536 1535 1534 1533 1531 1530 1528 1527 1526 1525 1523 1522 1521 1519 1517 1515 1513 1511 1509 1506 1503 1500 1499 1496 1494 1492 1489 1489 1487 1486 1485 1483 1481 1478
1530 1531 1533 1534 1535 1534 1534 1534 1534 1533 1533 1532 1531 1529 1528 1526 1525 1524 1522 1521 1520 1519 1518 1515 1513 1511 1509 1507 1505 1502 1499 1496 1495 1494 1494 1492 1491 1485 1484 1483 1481 1478 1475
1531 1531 1532 1533 1533 1532 1533 1533 1532 1532 1531 1530 1528 1527 1526 1524 1523 1522 1520 1519 1518 1517 1515 1513 1512 1509 1507 1504 1503 1501 1499 1495 1493 1492 1491 1490 1490 1489 1484 1479 1478 1477 1474
1531 1531 1532 1532 1531 1531 1532 1531 1531 1530 1529 1528 1526 1525 1523 1522 1520 1519 1518 1517 1515 1514 1513 1511 1509 1507 1506 1503 1501 1499 1497 1495 1492 1490 1489 1488 1487 1486 1485 1478 1475 1475 1473
1532 1532 1532 1532 1531 1531 1530 1529 1528 1527 1526 1525 1523 1522 1521 1520 1518 1516 1515 1514 1512 1511 1510 1509 1507 1504 1502 1500 1498 1496 1494 1492 1490 1488 1486 1484 1483 1483 1481 1478 1474 1472 1470
1532 1532 1532 1531 1530 1529 1528 1526 1525 1523 1522 1521 1520 1519 1518 1516 1514 1513 1512 1511 1510 1509 1507 1505 1503 1501 1499 1497 1495 1493 1491 1489 1488 1486 1484 1482 1481 1479 1478 1476 1473 1470 1467
1532 1532 1531 1530 1528 1526 1524 1521 1519 1518 1517 1516 1515 1515 1514 1513 1512 1510 1509 1507 1506 1505 1504 1503 1501 1499 1496 1494 1492 1490 1488 1486 1484 1482 1481 1479 1478 1476 1475 1474 1472 1468 1466
1531 1531 1530 1527 1525 1523 1519 1515 1513 1512 1511 1510 1509 1508 1508 1508 1507 1506 1504 1503 1502 1501 1500 1498 1497 1495 1493 1491 1489 1487 1485 1483 1481 1480 1478 1477 1476 1475 1473 1472 1471 1469 1466
1531 1529 1527 1526 1523 1520 1515 1512 1509 1507 1506 1505 1504 1503 1503 1503 1502 1501 1499 1498 1497 1495 1494 1493 1492 1491 1489 1487 1485 1483 1482 1480 1478 1476 1475 1474 1472 1470 1469 1468 1467 1466 1465
1528 1527 1526 1524 1521 1517 1512 1509 1506 1504 1502 1500 1500 1498 1498 1498 1497 1495 1493 1492 1490 1489 1488 1487 1486 1485 1484 1483 1481 1479 1477 1475 1474 1472 1471 1470 1469 1468 1466 1465 1464 1463 1460
1527 1525 1524 1522 1517 1513 1509 1506 1504 1502 1500 1497 1496 1495 1494 1493 1491 1489 1488 1486 1484 1483 1482 1482 1481 1480 1479 1478 1477 1475 1473 1472 1470 1469 1467 1465 1464 1463 1460 1460 1459 1458 1457
1525 1523 1521 1518 1514 1511 1508 1505 1502 1499 1498 1495 1493 1492 1490 1489 1487 1484 1482 1480 1478 1476 1476 1475 1474 1474 1473 1472 1471 1469 1468 1465 1463 1462 1461 1461 1460 1458 1457 1455 1454 1453 1450
1522 1521 1518 1514 1511 1508 1505 1502 1500 1497 1494 1492 1490 1488 1486 1484 1482 1479 1477 1474 1472 1470 1468 1467 1466 1465 1465 1465 1464 1463 1462 1460 1459 1457 1456 1454 1454 1453 1452 1450 1449 1447 1445
1520 1518 1515 1512 1508 1505 1502 1499 1497 1494 1491 1489 1486 1484 1481 1479 1476 1473 1471 1468 1465 1462 1460 1459 1457 1457 1457 1456 1456 1456 1455 1454 1453 1451 1450 1449 1447 1447 1445 1444 1443 1441 1440
1519 1516 1514 1510 1506 1503 1499 1496 1494 1491 1488 1485 1482 1479 1475 1472 1469 1465 1462 1458 1456 1454 1452 1451 1449 1449 1447 1447 1447 1447 1446 1447 1447 1445 1445 1444 1443 1441 1440 1438 1438 1436 1433
1517 1515 1513 1509 1506 1503 1499 1496 1493 1490 1486 1483 1479 1474 1470 1466 1462 1459 1455 1452 1449 1447 1444 1442 1440 1439 1439 1439 1439 1440 1439 1439 1439 1438 1438 1438 1438 1436 1434 1433 1431 1430 1429
1515 1513 1511 1509 1506 1502 1499 1495 1492 1488 1484 1480 1476 1471 1466 1462 1457 1452 1449 1445 1441 1438 1436 1433 1432 1431 1430 1430 1430 1431 1431 1431 1431 1432 1432 1432 1432 1430 1428 1427 1425 1424 1423
1514 1512 1510 1507 1504 1501 1497 1493 1489 1485 1481 1476 1472 1467 1462 1456 1451 1446 1442 1438 1433 1429 1426 1424 1422 1421 1421 1422 1422 1422 1422 1421 1423 1425 1425 1425 1425 1424 1422 1420 1419 1418 1417
1512 1509 1507 1504 1501 1498 1494 1489 1485 1480 1476 1470 1465 1460 1455 1450 1444 1439 1434 1429 1425 1419 1416 1413 1411 1410 1410 1412 1413 1413 1413 1413 1414 1416 1417 1418 1418 1418 1416 1414 1413 1412 1412
1508 1506 1504 1501 1498 1494 1490 1485 1480 1474 1468 1463 1457 1452 1447 1442 1436 1430 1426 1420 1416 1411 1407 1403 1401 1399 1399 1401 1403 1403 1403 1406 1405 1407 1410 1411 1412 1411 1410 1409 1407 1406 1406
1505 1503 1500 1496 1493 1489 1483 1477 1471 1466 1460 1455 1449 1444 1439 1434 1428 1423 1417 1412 1408 1403 1399 1395 1392 1391 1390 1391 1393 1394 1395 1397 1397 1399 1402 1405 1405 1405 1405 1404 1402 1402 1402
1500 1497 1493 1489 1486 1481 1475 1467 1462 1457 1451 1444 1438 1433 1429 1424 1419 1413 1407 1402 1399 1396 1391 1388 1385 1383 1383 1383 1383 1385 1387 1389 1390 1392 1396 1398 1398 1399 1398 1398 1397 1397 1395
1495 1491 1486 1481 1476 1472 1468 1463 1456 1450 1443 1436 1430 1424 1418 1413 1409 1404 1400 1395 1390 1386 1382 1380 1377 1377 1376 1376 1376 1376 1379 1380 1384 1386 1388 1390 1391 1392 1392 1392 1391 1390 1389
1489 1484 1480 1475 1469 1464 1460 1455 1448 1441 1433 1427 1421 1415 1410 1405 1397 1392 1388 1385 1382 1380 1374 1371 1369 1369 1368 1369 1369 1370 1371 1373 1377 1380 1382 1383 1384 1385 1385 1385 1384 1383 1383
1482 1478 1474 1468 1462 1457 1451 1446 1441 1434 1427 1419 1413 1408 1402 1396 1391 1384 1376 1376 1371 1369 1365 1362 1360 1360 1360 1361 1363 1363 1364 1367 1371 1373 1374 1375 1377 1378 1379 1379 1378 1377 1377